QLK161D YSCB-YSSY

Flight info

Callsign QLK161D
Flight time 0h 32m
Altitude 17000
Route DCT CB W122 AKMIR W113 ODALE ODALE7
Aircraft DH8D/M-SDE2E3FGRY/H

Departure

Time 2026-05-06 21:18
Airport Canberra Airport (YSCB)

Arrival

Time 2026-05-06 21:50
Airport Sydney Kingsford Smith International Airport (YSSY)
Time Latitude Longitude Altitude Speed Heading
2026-05-06 21:10 -35.30964 149.19116 1874 ft 0 kts 270°
2026-05-06 21:11 -35.30964 149.19127 1874 ft 2 kts 270°
2026-05-06 21:11 -35.30964 149.19145 1874 ft 2 kts 269°
2026-05-06 21:12 -35.30964 149.19163 1875 ft 2 kts 270°
2026-05-06 21:12 -35.30964 149.19182 1875 ft 2 kts 269°
2026-05-06 21:12 -35.30964 149.19199 1875 ft 0 kts 270°
2026-05-06 21:12 -35.30963 149.19211 1876 ft 2 kts 252°
2026-05-06 21:13 -35.30953 149.19231 1876 ft 2 kts 216°
2026-05-06 21:13 -35.30944 149.19237 1876 ft 2 kts 198°
2026-05-06 21:13 -35.30932 149.19240 1876 ft 1 kts 180°
2026-05-06 21:13 -35.30931 149.19240 1876 ft 0 kts 180°
2026-05-06 21:15 -35.30935 149.19240 1876 ft 1 kts 180°
2026-05-06 21:15 -35.30959 149.19244 1876 ft 5 kts 143°
2026-05-06 21:15 -35.30966 149.19292 1876 ft 6 kts 90°
2026-05-06 21:16 -35.30969 149.19350 1877 ft 7 kts 92°
2026-05-06 21:16 -35.30970 149.19420 1877 ft 8 kts 91°
2026-05-06 21:16 -35.30953 149.19446 1877 ft 0 kts
2026-05-06 21:17 -35.30890 149.19446 1877 ft 44 kts 359°
2026-05-06 21:17 -35.30253 149.19444 1884 ft 130 kts 357°
2026-05-06 21:17 -35.29268 149.19475 2287 ft 150 kts 358°
2026-05-06 21:18 -35.28155 149.19548 2853 ft 170 kts
2026-05-06 21:18 -35.26947 149.19705 3499 ft 185 kts 360°
2026-05-06 21:18 -35.25592 149.20102 3904 ft 219 kts 19°
2026-05-06 21:18 -35.24245 149.21245 4244 ft 247 kts 33°
2026-05-06 21:19 -35.22835 149.22613 4562 ft 268 kts 33°
2026-05-06 21:19 -35.21389 149.24026 5281 ft 269 kts 32°
2026-05-06 21:19 -35.19913 149.25462 5953 ft 270 kts 32°
2026-05-06 21:19 -35.18425 149.26901 6598 ft 276 kts 31°
2026-05-06 21:20 -35.16885 149.28378 7119 ft 285 kts 31°
2026-05-06 21:20 -35.15324 149.29872 7614 ft 292 kts 31°
2026-05-06 21:20 -35.13718 149.31409 8256 ft 293 kts 31°
2026-05-06 21:20 -35.12086 149.32913 8880 ft 291 kts 28°
2026-05-06 21:21 -35.10421 149.34305 9528 ft 289 kts 26°
2026-05-06 21:21 -35.08775 149.35666 10163 ft 289 kts 25°
2026-05-06 21:21 -35.07112 149.37044 10798 ft 288 kts 25°
2026-05-06 21:21 -35.05451 149.38423 11403 ft 289 kts 24°
2026-05-06 21:22 -35.03798 149.39796 12018 ft 289 kts 24°
2026-05-06 21:22 -35.02126 149.41187 12573 ft 292 kts 24°
2026-05-06 21:22 -35.00396 149.42616 12846 ft 304 kts 24°
2026-05-06 21:22 -34.98607 149.44099 13111 ft 315 kts 24°
2026-05-06 21:23 -34.96783 149.45615 13364 ft 323 kts 25°
2026-05-06 21:23 -34.94891 149.47189 13617 ft 330 kts 24°
2026-05-06 21:23 -34.92992 149.48772 13854 ft 335 kts 24°
2026-05-06 21:23 -34.91045 149.50397 14135 ft 339 kts 25°
2026-05-06 21:24 -34.89083 149.52034 14444 ft 340 kts 25°
2026-05-06 21:24 -34.87114 149.53676 14751 ft 342 kts 24°
2026-05-06 21:24 -34.85130 149.55328 15069 ft 343 kts 24°
2026-05-06 21:24 -34.83163 149.56964 15375 ft 345 kts 25°
2026-05-06 21:25 -34.81192 149.58604 15692 ft 346 kts 24°
2026-05-06 21:25 -34.79180 149.60277 16020 ft 346 kts 24°
2026-05-06 21:25 -34.77202 149.61925 16331 ft 347 kts 24°
2026-05-06 21:25 -34.75189 149.63592 16646 ft 347 kts 24°
2026-05-06 21:26 -34.73220 149.65225 16956 ft 348 kts 24°
2026-05-06 21:26 -34.71204 149.66895 17269 ft 347 kts 24°
2026-05-06 21:26 -34.68550 149.69093 17699 ft 347 kts 23°
2026-05-06 21:26 -34.67206 149.70206 17907 ft 347 kts 24°
2026-05-06 21:27 -34.65212 149.71854 18224 ft 347 kts 24°
2026-05-06 21:27 -34.63215 149.73505 18543 ft 347 kts 24°
2026-05-06 21:27 -34.61225 149.75146 18867 ft 347 kts 24°
2026-05-06 21:27 -34.59183 149.76828 18950 ft 354 kts 24°
2026-05-06 21:28 -34.57149 149.78505 18964 ft 352 kts 24°
2026-05-06 21:28 -34.55138 149.80164 18965 ft 349 kts 24°
2026-05-06 21:28 -34.53149 149.81802 18974 ft 347 kts 24°
2026-05-06 21:28 -34.51149 149.83447 18983 ft 348 kts 24°
2026-05-06 21:29 -34.49142 149.85097 18983 ft 350 kts 24°
2026-05-06 21:29 -34.47118 149.86762 18971 ft 351 kts 24°
2026-05-06 21:29 -34.45096 149.88423 18958 ft 351 kts 24°
2026-05-06 21:29 -34.43057 149.90099 18973 ft 352 kts 24°
2026-05-06 21:30 -34.41031 149.91762 18982 ft 352 kts 24°
2026-05-06 21:30 -34.39018 149.93413 18976 ft 353 kts 24°
2026-05-06 21:30 -34.36974 149.95091 18965 ft 353 kts 25°
2026-05-06 21:30 -34.34960 149.96741 18969 ft 352 kts 25°
2026-05-06 21:31 -34.32918 149.98412 18982 ft 353 kts 24°
2026-05-06 21:31 -34.30877 150.00084 18985 ft 353 kts 25°
2026-05-06 21:31 -34.28836 150.01753 18972 ft 353 kts 25°
2026-05-06 21:31 -34.26806 150.03413 18978 ft 354 kts 25°
2026-05-06 21:32 -34.24761 150.05083 18979 ft 354 kts 25°
2026-05-06 21:32 -34.20670 150.08423 18982 ft 355 kts 25°
2026-05-06 21:32 -34.18713 150.10249 18945 ft 368 kts 37°
2026-05-06 21:33 -34.17364 150.12970 18992 ft 387 kts 63°
2026-05-06 21:33 -34.16616 150.16113 18993 ft 392 kts 69°
2026-05-06 21:33 -34.15941 150.19310 18986 ft 393 kts 70°
2026-05-06 21:33 -34.15268 150.22511 18996 ft 393 kts 69°
2026-05-06 21:34 -34.14599 150.25673 18989 ft 393 kts 70°
2026-05-06 21:34 -34.13916 150.28877 18997 ft 393 kts 70°
2026-05-06 21:34 -34.13227 150.32091 18993 ft 394 kts 69°
2026-05-06 21:34 -34.12548 150.35242 18991 ft 394 kts 69°
2026-05-06 21:35 -34.11856 150.38440 19001 ft 394 kts 69°
2026-05-06 21:35 -34.11159 150.41655 18988 ft 394 kts 69°
2026-05-06 21:35 -34.10464 150.44849 18994 ft 394 kts 69°
2026-05-06 21:35 -34.09775 150.48004 18992 ft 394 kts 70°
2026-05-06 21:36 -34.09078 150.51190 18996 ft 395 kts 70°
2026-05-06 21:36 -34.08380 150.54402 18987 ft 395 kts 70°
2026-05-06 21:36 -34.07691 150.57616 19008 ft 395 kts 70°
2026-05-06 21:36 -34.07009 150.60794 19011 ft 395 kts 70°
2026-05-06 21:37 -34.06315 150.64027 19001 ft 395 kts 70°
2026-05-06 21:37 -34.05624 150.67235 18728 ft 402 kts 70°
2026-05-06 21:37 -34.04925 150.70459 17774 ft 398 kts 70°
2026-05-06 21:37 -34.04237 150.73645 17169 ft 383 kts 69°
2026-05-06 21:38 -34.03584 150.76662 16582 ft 372 kts 70°
2026-05-06 21:38 -34.02937 150.79627 16053 ft 361 kts 69°
2026-05-06 21:38 -34.02260 150.82541 15488 ft 356 kts 69°
2026-05-06 21:38 -34.01586 150.85388 14904 ft 353 kts 68°
2026-05-06 21:39 -34.00923 150.88190 14353 ft 351 kts 69°
2026-05-06 21:39 -34.00252 150.91023 13795 ft 348 kts 69°
2026-05-06 21:39 -33.99597 150.93796 13223 ft 345 kts 69°
2026-05-06 21:39 -33.98945 150.96555 12640 ft 342 kts 69°
2026-05-06 21:40 -33.98313 150.99283 12059 ft 340 kts 71°
2026-05-06 21:40 -33.97737 151.02040 11483 ft 338 kts 72°
2026-05-06 21:40 -33.97178 151.04774 10907 ft 336 kts 72°
2026-05-06 21:40 -33.96621 151.07480 10330 ft 333 kts 72°
2026-05-06 21:41 -33.96062 151.10179 9755 ft 330 kts 72°
2026-05-06 21:41 -33.95497 151.12854 9184 ft 328 kts 72°
2026-05-06 21:41 -33.94936 151.15469 8612 ft 320 kts 72°
2026-05-06 21:41 -33.94367 151.18027 8024 ft 309 kts 72°
2026-05-06 21:42 -33.93810 151.20465 7442 ft 301 kts 72°
2026-05-06 21:42 -33.93255 151.22858 7012 ft 287 kts 72°
2026-05-06 21:42 -33.92519 151.24970 6714 ft 266 kts 52°
2026-05-06 21:42 -33.91213 151.26399 6441 ft 242 kts 26°
2026-05-06 21:43 -33.89777 151.27356 6184 ft 228 kts 23°
2026-05-06 21:43 -33.88412 151.28253 5960 ft 230 kts 23°
2026-05-06 21:43 -33.86944 151.29215 5681 ft 244 kts 23°
2026-05-06 21:43 -33.85355 151.29985 5381 ft 248 kts
2026-05-06 21:44 -33.83654 151.29898 5117 ft 244 kts 344°
2026-05-06 21:44 -33.81971 151.29488 4872 ft 247 kts 343°
2026-05-06 21:44 -33.80293 151.29065 4614 ft 244 kts 341°
2026-05-06 21:44 -33.78829 151.28174 4336 ft 229 kts 313°
2026-05-06 21:45 -33.78025 151.26625 4112 ft 214 kts 283°
2026-05-06 21:45 -33.77975 151.24893 3948 ft 205 kts 263°
2026-05-06 21:45 -33.78129 151.23210 3770 ft 200 kts 263°
2026-05-06 21:45 -33.78274 151.21570 3584 ft 196 kts 263°
2026-05-06 21:46 -33.78432 151.19955 3404 ft 191 kts 261°
2026-05-06 21:46 -33.78755 151.18436 3207 ft 188 kts 243°
2026-05-06 21:46 -33.79705 151.17413 3079 ft 188 kts 209°
2026-05-06 21:46 -33.80936 151.16940 2928 ft 186 kts 203°
2026-05-06 21:47 -33.82189 151.16481 2675 ft 186 kts 204°
2026-05-06 21:47 -33.83425 151.16078 2316 ft 183 kts 196°
2026-05-06 21:47 -33.84678 151.16128 2082 ft 180 kts 176°
2026-05-06 21:47 -33.85883 151.16466 1899 ft 171 kts 174°
2026-05-06 21:48 -33.87042 151.16783 1673 ft 171 kts 175°
2026-05-06 21:48 -33.88145 151.17073 1454 ft 153 kts 175°
2026-05-06 21:48 -33.89142 151.17337 1215 ft 143 kts 175°
2026-05-06 21:48 -33.90120 151.17577 1069 ft 146 kts 175°
2026-05-06 21:49 -33.91146 151.17828 882 ft 151 kts 173°
2026-05-06 21:49 -33.92181 151.18094 663 ft 151 kts 173°
2026-05-06 21:49 -33.93190 151.18378 440 ft 147 kts 169°
2026-05-06 21:49 -33.93899 151.18553 332 ft 144 kts 173°
2026-05-06 21:50 -33.94899 151.18814 140 ft 149 kts 171°
2026-05-06 21:50 -33.95891 151.19070 30 ft 121 kts 168°
2026-05-06 21:50 -33.96440 151.19212 30 ft 55 kts 173°
2026-05-06 21:50 -33.96665 151.19186 30 ft 17 kts 198°
2026-05-06 21:51 -33.96708 151.19106 30 ft 11 kts 299°
2026-05-06 21:51 -33.96647 151.19067 30 ft 9 kts 347°
2026-05-06 21:51 -33.96591 151.19052 30 ft 10 kts 349°
2026-05-06 21:51 -33.96473 151.19022 30 ft 19 kts 347°
2026-05-06 21:52 -33.96343 151.18988 30 ft 19 kts 347°
2026-05-06 21:52 -33.96214 151.18953 30 ft 18 kts 347°
2026-05-06 21:52 -33.96086 151.18921 30 ft 18 kts 351°
2026-05-06 21:52 -33.95959 151.18889 30 ft 18 kts 347°
2026-05-06 21:53 -33.95832 151.18855 30 ft 18 kts 348°
2026-05-06 21:53 -33.95707 151.18822 30 ft 18 kts 347°
2026-05-06 21:53 -33.95582 151.18790 30 ft 18 kts 348°
2026-05-06 21:53 -33.95454 151.18758 30 ft 18 kts 348°
2026-05-06 21:54 -33.95329 151.18724 30 ft 18 kts 347°
2026-05-06 21:54 -33.95216 151.18654 30 ft 18 kts 320°
2026-05-06 21:54 -33.95131 151.18552 30 ft 16 kts 300°
2026-05-06 21:54 -33.95116 151.18425 30 ft 15 kts 258°
2026-05-06 21:55 -33.95139 151.18292 30 ft 16 kts 257°
2026-05-06 21:55 -33.95164 151.18158 30 ft 16 kts 259°
2026-05-06 21:55 -33.95187 151.18021 30 ft 16 kts 269°
2026-05-06 21:55 -33.95106 151.17946 30 ft 15 kts 346°
2026-05-06 21:56 -33.95003 151.17918 30 ft 15 kts 347°
2026-05-06 21:56 -33.94899 151.17892 30 ft 15 kts 347°
2026-05-06 21:56 -33.94794 151.17865 30 ft 16 kts 348°
2026-05-06 21:56 -33.94672 151.17833 30 ft 18 kts 347°
2026-05-06 21:57 -33.94544 151.17799 30 ft 19 kts 348°
2026-05-06 21:57 -33.94414 151.17761 30 ft 19 kts 346°
2026-05-06 21:57 -33.94284 151.17722 30 ft 19 kts 346°
2026-05-06 21:57 -33.94155 151.17682 30 ft 19 kts 346°
2026-05-06 21:58 -33.94023 151.17645 30 ft 19 kts 347°
2026-05-06 21:58 -33.93891 151.17609 30 ft 19 kts 347°
2026-05-06 21:58 -33.93759 151.17575 30 ft 19 kts 347°
2026-05-06 21:58 -33.93626 151.17540 30 ft 19 kts 348°
2026-05-06 21:59 -33.93494 151.17506 30 ft 19 kts 347°
2026-05-06 21:59 -33.93361 151.17499 30 ft 19 kts 347°
2026-05-06 21:59 -33.93226 151.17465 30 ft 19 kts 347°
2026-05-06 21:59 -33.93094 151.17430 30 ft 19 kts 348°
2026-05-06 22:00 -33.92987 151.17445 30 ft 15 kts 78°
2026-05-06 22:00 -33.93005 151.17577 30 ft 17 kts 101°
2026-05-06 22:00 -33.93047 151.17732 30 ft 21 kts 118°
2026-05-06 22:00 -33.93080 151.17915 30 ft 22 kts 100°
2026-05-06 22:01 -33.93106 151.18088 30 ft 17 kts 99°
2026-05-06 22:01 -33.93076 151.18176 30 ft 7 kts 28°
2026-05-06 22:01 -33.93026 151.18188 30 ft 6 kts
2026-05-06 22:01 -33.93028 151.18222 30 ft 6 kts 135°
2026-05-06 22:02 -33.93046 151.18242 30 ft 0 kts 134°